Find Anik C2

NORAD ID: 14133 Int'l Des: 1983-059 Owner: TCAN Country: CA operational
HEOCIRCULAR

リアルタイム位置

3D地球を読み込み中...

Anik C2について

説明を読み込み中...

次回通過

Passes for default location (London). Set your location on the main map for personalized predictions.

高度履歴

Loading altitude history...

軌道要素

1 14133U 83059B 26133.62758506 .00000055 00000-0 00000+0 0 9990
2 14133 12.9412 336.4764 0036769 118.4416 241.8734 0.99120977 45802
Epoch: May 13, 2026 • Age: 26 hours

現在のステータス

高度 36113.9 km
速度 3.06 km/s
衛星直下点 5.84°N, 126.04°W
打ち上げ日 Jun 18, 1983
運用期間 42.9 years
タイプ other

技術仕様

分類 Payload
質量 592.00 kg
乾燥質量 444.00 kg
総質量 1118.00 kg
長さ 6.60 m
直径 2.20 m
スパン 6.60 m
形状 Cyl
製造者 HSES
バスタイプ HS-376
フェーズステータス Unknown Active Status
所有者/国 TCAN/CA

Most Searched